Regional Weather Roundup
Issued by NWS Sioux Falls, SD

Home | Current Version | Previous Version | Text Only | Print | Product List | Glossary On
Versions: 1 2 3 4 5 6 7 8 9 10 11 12 13 14 15 16 17 18 19 20 21 22 23 24 25 26 27 28 29 30 31 32 33 34 35 36 37 38 39 40 41 42 43 44 45 46 47 48 49 50
000
ASUS43 KFSD 310610
RWRFSD

WEATHER ROUNDUP FOR SE SOUTH DAKOTA/SW MINNESOTA/NW IOWA
NATIONAL WEATHER SERVICE SIOUX FALLS SD
100 AM CDT MON AUG 31 2015

NOTE: "FAIR" INDICATES FEW OR NO CLOUDS BELOW 12,000 FEET WITH NO
SIGNIFICANT WEATHER AND OR OBSTRUCTIONS TO VISIBILITY.


SDZ038>040-050-052>070-310700-
SOUTHEAST SOUTH DAKOTA

CITY           SKY/WX    TMP DP  RH WIND       PRES   REMARKS
BROOKINGS      MOCLDY    66  63  88 S15       29.90S
CHAMBERLAIN    CLEAR     71  63  75 S12G17    29.79R
6HR MIN TEMP:  70; 6HR MAX TEMP:  82;

HURON          CLEAR     67  65  93 S13       29.80R
6HR MIN TEMP:  67; 6HR MAX TEMP:  79;

MADISON        FAIR      64  64 100 S15G21    29.89R
MITCHELL       CLEAR     68  66  93 S13       29.83S
6HR MIN TEMP:  68; 6HR MAX TEMP:  79;

SIOUX FALLS    FAIR      67  64  90 S14       29.90S
6HR MIN TEMP:  67; 6HR MAX TEMP:  72;

WINNER         FAIR      75  58  55 S25G32    29.77S
YANKTON        FAIR      70  64  83 S12       29.88S
$$

MNZ071-072-080-081-089-090-097-098-310700-
SOUTHWEST MINNESOTA

CITY           SKY/WX    TMP DP  RH WIND       PRES   REMARKS
FAIRMONT       FAIR      64  61  88 S8        29.95S
JACKSON        FAIR      64  64 100 S12       29.95S FOG
LUVERNE        CLOUDY    64  63  94 S3        29.93S FOG
MARSHALL       FAIR      66  61  82 SW20      29.88R
6HR MIN TEMP:  66; 6HR MAX TEMP:  75;

MONTEVIDEO     FAIR      64  64 100 SW8       29.87R FOG
PIPESTONE      FAIR      66  64  94 S12       29.92S FOG
REDWOOD FALLS  FAIR      67  64  90 S10       29.89S
TRACY          FAIR      67  65  93 SW16G23   29.89S
WINDOM         FAIR      66  64  94 S9        29.93S
WORTHINGTON    FAIR      64  61  88 S15       29.93F
$$

IAZ001>003-012>014-020>022-031-032-NEZ013-014-SDZ071-310700-
NORTHWEST IOWA

CITY           SKY/WX    TMP DP  RH WIND       PRES   REMARKS
CHEROKEE       FAIR      64  64 100 S7        29.96S FOG
DENISON        CLOUDY    68  66  94 S9        29.97R
ESTHERVILLE    FAIR      62  62 100 S8        29.95F FOG
LE MARS        FAIR      66  66 100 S9        29.95S
ORANGE CITY    FAIR      64  64 100 S7        29.94S FOG
SHELDON        MOCLDY    64  64 100 S7G14     29.93S FOG
SIOUX CITY     NOT AVBL
SPENCER        FAIR      64  61  90 S7        29.96S FOG
6HR MIN TEMP:  61; 6HR MAX TEMP:  72;

STORM LAKE     FAIR      63  63 100 S9        29.98F FOG
$$

ABBREVIATIONS USED IN REMARKS
   TC - TEMPERATURE IN CELSIUS
  WCI - WIND CHILL INDEX
   HX - HEAT INDEX
  VSB - VISIBILITY



USA.gov is the U.S. government's official web portal to all federal, state and local government web resources and services.